When you browse on this site, cookies collect data to enhance your experience and personalize the content and advertising you see.
Visit our Privacy Policy to learn more. By continuing to use the site, you agree to this use of cookies and data.
  • en Suisse
  • Liste des pays
  • À 7 jours
  • Température de l'eau
  • Carte météo
  • Widgets météo
  • user-avatar
    Se connecter

    Météo par heure à Abovyan

    Ce jour, 31 Mai, Dimanche

    Heure Température Précipitation Vent Pression Humidité
    00:00 +18°C° 0 mm 2 m/s 671 mmHg 41%
    01:00 +17°C° 0 mm 2 m/s 671 mmHg 40%
    02:00 +17°C° 0 mm 2 m/s 671 mmHg 40%
    03:00 +16°C° 0 mm 2 m/s 671 mmHg 42%
    04:00 +17°C° 0 mm 2 m/s 671 mmHg 42%
    05:00 +17°C° 0 mm 2 m/s 672 mmHg 43%
    06:00 +18°C° 0 mm 2 m/s 672 mmHg 43%
    07:00 +19°C° 0 mm 2 m/s 672 mmHg 39%
    08:00 +21°C° 0 mm 2 m/s 672 mmHg 34%
    09:00 +24°C° 0 mm 2 m/s 673 mmHg 30%
    10:00 +25°C° 0 mm 2 m/s 673 mmHg 27%
    11:00 +26°C° 0 mm 2 m/s 672 mmHg 24%
    12:00 +27°C° 0 mm 3 m/s 672 mmHg 21%
    13:00 +27°C° 0 mm 2 m/s 672 mmHg 21%
    14:00 +28°C° 0 mm 2 m/s 672 mmHg 21%
    15:00 +28°C° 0 mm 2 m/s 671 mmHg 21%
    16:00 +28°C° 0 mm 1 m/s 671 mmHg 25%
    17:00 +27°C° 0 mm 1 m/s 671 mmHg 29%
    18:00 +25°C° 0 mm 0 m/s 671 mmHg 33%
    19:00 +25°C° 0 mm 1 m/s 671 mmHg 33%
    20:00 +23°C° 0 mm 1 m/s 671 mmHg 33%
    21:00 +19°C° 0 mm 2 m/s 670 mmHg 34%
    22:00 +19°C° 0 mm 2 m/s 670 mmHg 36%
    23:00 +18°C° 0 mm 2 m/s 670 mmHg 39%

    Demain, 1 Juin, Lundi

    Heure Température Précipitation Vent Pression Humidité
    00:00 +18°C° 0 mm 2 m/s 670 mmHg 41%
    01:00 +17°C° 0 mm 2 m/s 670 mmHg 42%
    02:00 +17°C° 0 mm 2 m/s 669 mmHg 44%
    03:00 +16°C° 0 mm 1 m/s 669 mmHg 45%
    04:00 +18°C° 0 mm 1 m/s 670 mmHg 47%
    05:00 +18°C° 0 mm 1 m/s 670 mmHg 49%
    06:00 +19°C° 0 mm 1 m/s 670 mmHg 51%
    07:00 +21°C° 0 mm 1 m/s 670 mmHg 45%
    08:00 +23°C° 0 mm 1 m/s 670 mmHg 39%
    09:00 +25°C° 0 mm 2 m/s 671 mmHg 33%
    10:00 +26°C° 0 mm 2 m/s 671 mmHg 31%
    11:00 +27°C° 0 mm 2 m/s 671 mmHg 28%
    12:00 +28°C° 0 mm 2 m/s 671 mmHg 26%
    13:00 +28°C° 0 mm 3 m/s 671 mmHg 26%
    14:00 +29°C° 0 mm 3 m/s 670 mmHg 25%
    15:00 +29°C° 0 mm 3 m/s 670 mmHg 24%
    16:00 +28°C° 0 mm 4 m/s 670 mmHg 28%
    17:00 +27°C° 0 mm 4 m/s 670 mmHg 32%
    18:00 +26°C° 0 mm 5 m/s 669 mmHg 36%
    19:00 +25°C° 0 mm 4 m/s 669 mmHg 35%
    20:00 +24°C° 0 mm 3 m/s 669 mmHg 34%
    21:00 +23°C° 0 mm 2 m/s 669 mmHg 34%
    22:00 +20°C° 0 mm 2 m/s 669 mmHg 36%
    23:00 +19°C° 0 mm 2 m/s 669 mmHg 39%

    Après-demain, 2 Juin, Mardi

    Heure Température Précipitation Vent Pression Humidité
    00:00 +19°C° 0 mm 1 m/s 668 mmHg 41%
    01:00 +18°C° 0 mm 1 m/s 668 mmHg 42%
    02:00 +18°C° 0 mm 1 m/s 668 mmHg 44%
    03:00 +18°C° 0 mm 1 m/s 668 mmHg 45%
    04:00 +19°C° 0 mm 1 m/s 668 mmHg 46%
    05:00 +19°C° 0 mm 1 m/s 668 mmHg 48%
    06:00 +20°C° 0 mm 1 m/s 668 mmHg 49%
    07:00 +21°C° 0 mm 2 m/s 668 mmHg 44%
    08:00 +24°C° 0 mm 2 m/s 668 mmHg 39%
    09:00 +25°C° 0 mm 3 m/s 668 mmHg 33%
    10:00 +27°C° 0 mm 3 m/s 668 mmHg 31%
    11:00 +28°C° 0 mm 3 m/s 669 mmHg 29%
    12:00 +29°C° 0 mm 3 m/s 669 mmHg 27%
    13:00 +30°C° 0 mm 3 m/s 668 mmHg 27%
    14:00 +30°C° 0 mm 3 m/s 668 mmHg 27%
    15:00 +30°C° 0 mm 4 m/s 668 mmHg 27%
    16:00 +29°C° 0 mm 3 m/s 668 mmHg 32%
    17:00 +29°C° 0 mm 2 m/s 668 mmHg 36%
    18:00 +28°C° 0 mm 2 m/s 667 mmHg 41%
    19:00 +26°C° 0 mm 2 m/s 667 mmHg 41%
    20:00 +24°C° 0 mm 2 m/s 667 mmHg 40%
    21:00 +21°C° 0 mm 2 m/s 667 mmHg 40%
    22:00 +20°C° 0 mm 2 m/s 667 mmHg 40%
    23:00 +19°C° 0 mm 2 m/s 667 mmHg 39%

    3 Juin, Mercredi

    Heure Température Précipitation Vent Pression Humidité
    00:00 +19°C° 0 mm 2 m/s 667 mmHg 39%
    01:00 +18°C° 0 mm 2 m/s 667 mmHg 39%
    02:00 +17°C° 0 mm 2 m/s 667 mmHg 38%
    03:00 +16°C° 0 mm 2 m/s 667 mmHg 38%
    04:00 +18°C° 0 mm 1 m/s 668 mmHg 40%
    05:00 +18°C° 0 mm 1 m/s 668 mmHg 42%
    06:00 +19°C° 0 mm 1 m/s 668 mmHg 44%
    07:00 +21°C° 0 mm 1 m/s 668 mmHg 40%
    08:00 +23°C° 0 mm 1 m/s 668 mmHg 36%
    09:00 +25°C° 0 mm 2 m/s 668 mmHg 31%
    10:00 +25°C° 0.1 mm 2 m/s 669 mmHg 32%
    11:00 +26°C° 0.1 mm 3 m/s 669 mmHg 33%
    12:00 +26°C° 0.1 mm 4 m/s 669 mmHg 34%
    13:00 +26°C° 0.4 mm 4 m/s 668 mmHg 38%
    14:00 +25°C° 0.4 mm 4 m/s 668 mmHg 43%
    15:00 +24°C° 0.4 mm 3 m/s 668 mmHg 48%
    16:00 +24°C° 0.3 mm 3 m/s 668 mmHg 48%
    17:00 +24°C° 0.3 mm 3 m/s 668 mmHg 48%
    18:00 +24°C° 0.3 mm 2 m/s 668 mmHg 48%
    19:00 +21°C° 0.2 mm 2 m/s 668 mmHg 53%
    20:00 +20°C° 0.2 mm 2 m/s 668 mmHg 58%
    21:00 +18°C° 0.2 mm 2 m/s 668 mmHg 63%
    22:00 +17°C° 0.2 mm 2 m/s 668 mmHg 65%
    23:00 +17°C° 0.2 mm 2 m/s 668 mmHg 67%

    4 Juin, Jeudi

    Heure Température Précipitation Vent Pression Humidité
    00:00 +16°C° 0.2 mm 1 m/s 669 mmHg 69%
    01:00 +15°C° 0 mm 1 m/s 669 mmHg 68%
    02:00 +15°C° 0 mm 1 m/s 669 mmHg 68%
    03:00 +14°C° 0 mm 1 m/s 669 mmHg 67%
    04:00 +15°C° 0 mm 1 m/s 669 mmHg 64%
    05:00 +16°C° 0 mm 1 m/s 670 mmHg 61%
    06:00 +18°C° 0 mm 1 m/s 670 mmHg 58%
    07:00 +20°C° 0 mm 1 m/s 670 mmHg 51%
    08:00 +22°C° 0 mm 1 m/s 670 mmHg 45%
    09:00 +24°C° 0 mm 1 m/s 671 mmHg 38%
    10:00 +25°C° 0 mm 2 m/s 671 mmHg 34%
    11:00 +26°C° 0 mm 2 m/s 671 mmHg 29%
    12:00 +27°C° 0 mm 2 m/s 671 mmHg 25%
    13:00 +28°C° 0 mm 2 m/s 671 mmHg 24%
    14:00 +28°C° 0 mm 2 m/s 670 mmHg 24%
    15:00 +29°C° 0 mm 2 m/s 670 mmHg 23%
    16:00 +28°C° 0 mm 2 m/s 670 mmHg 26%
    17:00 +28°C° 0 mm 2 m/s 670 mmHg 30%
    18:00 +28°C° 0 mm 2 m/s 670 mmHg 33%
    19:00 +26°C° 0 mm 2 m/s 670 mmHg 32%
    20:00 +24°C° 0 mm 3 m/s 670 mmHg 31%
    21:00 +21°C° 0 mm 4 m/s 670 mmHg 30%
    22:00 +20°C° 0 mm 3 m/s 671 mmHg 31%
    23:00 +19°C° 0 mm 3 m/s 671 mmHg 32%

    5 Juin, Vendredi

    Heure Température Précipitation Vent Pression Humidité
    00:00 +18°C° 0 mm 2 m/s 671 mmHg 34%
    01:00 +17°C° 0 mm 2 m/s 671 mmHg 35%
    02:00 +16°C° 0 mm 2 m/s 671 mmHg 37%
    03:00 +16°C° 0 mm 1 m/s 671 mmHg 38%
    04:00 +18°C° 0 mm 1 m/s 671 mmHg 41%
    05:00 +18°C° 0 mm 1 m/s 672 mmHg 44%
    06:00 +19°C° 0 mm 1 m/s 672 mmHg 46%
    07:00 +20°C° 0 mm 2 m/s 672 mmHg 40%
    08:00 +23°C° 0 mm 2 m/s 673 mmHg 35%
    09:00 +25°C° 0 mm 2 m/s 673 mmHg 29%
    10:00 +26°C° 0 mm 2 m/s 673 mmHg 27%
    11:00 +27°C° 0 mm 2 m/s 673 mmHg 26%
    12:00 +28°C° 0 mm 2 m/s 673 mmHg 24%
    13:00 +28°C° 0 mm 3 m/s 673 mmHg 24%
    14:00 +29°C° 0 mm 3 m/s 673 mmHg 23%
    15:00 +29°C° 0 mm 3 m/s 673 mmHg 22%
    16:00 +29°C° 0 mm 3 m/s 673 mmHg 25%
    17:00 +28°C° 0 mm 2 m/s 673 mmHg 28%
    18:00 +28°C° 0 mm 2 m/s 672 mmHg 31%
    19:00 +25°C° 0 mm 2 m/s 672 mmHg 34%
    20:00 +23°C° 0 mm 2 m/s 672 mmHg 37%
    21:00 +19°C° 0 mm 2 m/s 672 mmHg 39%
    22:00 +19°C° 0 mm 3 m/s 672 mmHg 43%
    23:00 +18°C° 0 mm 3 m/s 672 mmHg 46%
    Voir plus